sat.trackr.live / text

‹ back to catalog

FLOCK 4Q-36

NORAD 58274 · 2023-174U

PAYLOAD ACTIVE UNKNOWN

§ Identity

Operator
Country
US
Launch date
2023-11-11
Launch site
AFWTR
Launch vehicle
Mass (kg)
RCS (m²)

Purposes: earth_obs

External: N2YO · Heavens-Above · Gunter

§ Orbital elements

Epoch: 2026-05-24T19:15:11.406240Z

Period
92.54 min
Inclination
97.3842°
Eccentricity
0.0006966
Mean motion
15.56047038 rev/d
Perigee alt
394.4 km
Apogee alt
403.8 km
Semi-major
6,777.2 km
B*
4.7597e-4
RAAN
236.3804°
Arg perigee
211.1523°
Mean anomaly
148.9319°
Rev number
14,219

§ Raw data

FLOCK 4Q-361 58274U 23174U   26144.80221535  .00033175  00000+0  47597-3 0  99992 58274  97.3842 236.3804 0006966 211.1523 148.9319 15.56047038142190

JSON: /api/v1/satellites/58274 · /tle

For live sub-satellite position, see the globe view (requires WebGL).

§ Visibility from observer

Set your observer location to see the next 7 days of passes ≥ 10°. The values pass through the URL so the page stays shareable.

No JS? Fill the form by hand. The geolocation button needs JavaScript.